User: anonymous   Login
Location: Unspecified
(0.0000°N, 0.0000°E)
Time: 15:23:14
(UTC+00:00)
Language:

Picosat 4 - Orbit

View from above orbital plane
View from above orbital plane
View from above satellite
View from above satellite

Ground track
Ground track

The orbit data is extracted from the following two-line orbital elements,

1 26092U 00004K   23273.45534899  .00001647  00000-0  48421-3 0  9997
2 26092 100.2124  83.0607 0033759 105.7406 254.7506 14.45184215243064
Epoch (UTC): 30 September 2023 10:55:42
Eccentricity: 0.0033759
inclination: 100.2124°
perigee height: 717 km
apogee height: 765 km
right ascension of ascending node: 83.0607°
argument of perigee: 105.7406°
revolutions per day: 14.45184215
mean anomaly at epoch: 254.7506°
orbit number at epoch: 24306

The dashed part of the orbit path shows where the satellite is in the earth's shadow,  

DLR